Flag for Turkey Weather past 2 weeks in Ankara, Turkey

Now
75 °F

Clear.


Feels Like: 77 °F
Forecast: 66 / 98 °F
Wind: 3 mph from North

Location: Ankara / Esenboga

Current Time: Aug 2, 2014 at 2:40:41 AM

Latest Report: Aug 2, 2014 at 1:50 AM


Visibility: 10 mi

Pressure: 29.77 "Hg

Humidity: 31%

Dew point: 43 °F

Location of AnkaraLocation

Historic Weather in Ankara — Graph

°F

Ankara temperature yesterday

Maximum temperature yesterday: 95 °F (at 2:50 PM)
Minimum temperature yesterday: 61 °F (at 5:20 AM)
Average temperature yesterday: 80 °F

Past Weeks' High & Low Weather Summary

 TemperatureHumidityPressure
High95 °F (Aug 1, 2:50 PM)94% (Jul 19, 5:20 AM)30.07 "Hg (Jul 19, 5:20 AM)
Low57 °F (Jul 20, 5:20 AM)12% (Jul 31, 5:20 PM)29.71 "Hg (Jul 24, 3:50 PM)
Average75 °F46%29.88 "Hg
* Reported Jul 18 1:20 AM — Aug 2 1:20 AM, Ankara, Weather by CustomWeather, © 2014

Note: Actual official high and low records may vary slightly from our data, if they occured in-between our weather recording intervals... More about our weather records

Advertising

Ankara weather history for previous 24 hours

 ConditionsComfort  
Time TempWeatherWind HumidityBarometerVisibility
1:20 AM
Aug 2
79 °FPassing clouds.10 mph28%29.77 "HgN/A
12:50 AM77 °FClear.2 mph32%29.77 "Hg10 mi
12:20 AM79 °FClear.7 mph28%29.77 "Hg10 mi
11:50 PM
Aug 1
81 °FPassing clouds.5 mph26%29.77 "HgN/A
11:20 PM79 °FPassing clouds.3 mph30%29.74 "HgN/A
10:50 PM81 °FPassing clouds.10 mph26%29.74 "HgN/A
10:20 PM79 °FPassing clouds.7 mph28%29.74 "HgN/A
9:50 PM79 °FPassing clouds.8 mph26%29.74 "HgN/A
9:20 PM79 °FPassing clouds.3 mph26%29.74 "HgN/A
8:50 PM86 °FPassing clouds.9 mph18%29.74 "HgN/A
8:20 PM90 °FPassing clouds.7 mph16%29.74 "HgN/A
7:50 PM90 °FPassing clouds.5 mph16%29.71 "HgN/A
7:20 PM93 °FPassing clouds.5 mph14%29.74 "HgN/A
6:50 PM93 °FPassing clouds.7 mph14%29.74 "HgN/A
6:20 PM95 °FScattered clouds.7 mph13%29.74 "HgN/A
5:50 PM93 °FScattered clouds.5 mph13%29.74 "HgN/A
5:20 PM95 °FScattered clouds.6 mph14%29.74 "HgN/A
4:50 PM95 °FScattered clouds.7 mph13%29.74 "HgN/A
4:20 PM95 °FScattered clouds.7 mph14%29.77 "HgN/A
3:50 PM95 °FScattered clouds.6 mph12%29.77 "HgN/A
3:20 PM95 °FScattered clouds.6 mph13%29.77 "HgN/A
2:50 PM95 °FScattered clouds.8 mph12%29.77 "HgN/A
2:20 PM93 °FScattered clouds.7 mph13%29.77 "HgN/A
1:50 PM93 °FScattered clouds.8 mph13%29.80 "HgN/A
1:20 PM93 °FScattered clouds.9 mph13%29.80 "HgN/A
12:50 PM91 °FScattered clouds.6 mph13%29.80 "HgN/A
12:20 PM91 °FScattered clouds.5 mph16%29.80 "HgN/A
11:50 AM90 °FPassing clouds.3 mph21%29.83 "HgN/A
11:20 AM88 °FPassing clouds.6 mph19%29.83 "HgN/A
10:50 AM84 °FPassing clouds.5 mph29%29.83 "HgN/A
10:20 AM84 °FSunny.2 mph33%29.83 "Hg10 mi
9:50 AM81 °FSunny.2 mph39%29.83 "Hg10 mi
9:20 AM79 °FSunny.2 mph42%29.86 "Hg10 mi
8:50 AM75 °FPassing clouds.3 mph44%29.86 "HgN/A
8:20 AM72 °FSunny.2 mph47%29.86 "Hg10 mi
7:50 AM68 °FSunny.1 mph49%29.86 "Hg10 mi
7:20 AM66 °FSunny.1 mph49%29.86 "Hg10 mi
6:50 AM64 °FSunny.1 mph52%29.86 "Hg10 mi
6:20 AM61 °FClear.2 mph59%29.86 "Hg10 mi
5:50 AM61 °FClear.2 mph59%29.86 "Hg10 mi
5:20 AM61 °FClear.1 mph55%29.86 "Hg10 mi
4:50 AM63 °FClear.1 mph59%29.86 "Hg10 mi
4:20 AM63 °FClear.2 mph59%29.86 "Hg10 mi
3:50 AM64 °FClear.2 mph56%29.83 "Hg10 mi
3:20 AM66 °FClear.6 mph52%29.86 "Hg10 mi
2:50 AM66 °FClear.2 mph52%29.86 "Hg10 mi
2:20 AM66 °FClear.1 mph52%29.86 "Hg10 mi
Weather by CustomWeather, © 2014

See weather overviewHow to use our weather pages